Location: Cañada de la Miga
(34.7595°N, 106.2317°W)
Time: 16:40:44
(UTC+00:00)

Transit 4A - Pass Details

Date: 11 December 2021
Orbit: 864 x 981 km, 66.8° (Epoch: 18 January)

Event Time Altitude Azimuth Distance (km) Brightness Sun altitude
Rises 02:07:18 0° 256° (WSW) 3,464 12.2 -26.6°
Reaches altitude 10° 02:10:56 10° 279° (W) 2,548 11.1 -27.3°
Maximum altitude 02:14:14 15° 314° (NW) 2,223 10.2 -28.0°
Drops below altitude 10° 02:17:35 10° 348° (NNW) 2,596 10.2 -28.7°
Enters shadow 02:18:48 - 357° (N) 2,865 10.4 -28.9°
